Location: Unspecified
(0.0000°N, 0.0000°E)
Time: 00:20:01
(UTC+02:00)

JASON 3 - Pass Details

Date: 04 October 2021
Orbit: 1332 x 1343 km, 66.0° (Epoch: 18 October)

Event Time Altitude Azimuth Distance (km) Brightness Sun altitude
Rises 20:36:04 0° 318° (NW) 4,344 ? -11.8°
Reaches altitude 10° 20:39:18 10° 308° (NW) 3,372 ? -12.6°
Maximum altitude 20:46:13 31° 250° (WSW) 2,173 ? -14.4°
Drops below altitude 10° 20:53:10 10° 191° (S) 3,373 ? -16.1°
Sets 20:56:27 0° 180° (S) 4,346 ? -16.9°
